N233CL LSZA-EGKB

Flight info

Callsign N233CL
Flight time N/A
Altitude 43000
Route CANNE Z651 MANEG DCT RIPUS DCT DITON DCT HOC DCT LUL DCT RLP DCT ROTSI DCT KOTUN DCT NURMO DCT VESAN DCT RATUK L613 SOVAT
Aircraft C700/M-SBDGHM1RWXY/LB2

Departure

Time 2026-04-19 09:19
Airport Lugano Airport (LSZA)

Arrival

Time N/A
Airport London Biggin Hill Airport (EGKB)
Time Latitude Longitude Altitude Speed Heading
2026-04-19 08:49 46.00185 8.90778 897 ft 0 kts 19°
2026-04-19 09:14 46.00191 8.90781 897 ft 4 kts 19°
2026-04-19 09:14 46.00214 8.90836 897 ft 10 kts 47°
2026-04-19 09:14 46.00281 8.90875 897 ft 12 kts 18°
2026-04-19 09:15 46.00376 8.90921 897 ft 16 kts 19°
2026-04-19 09:15 46.00450 8.90958 897 ft 1 kts 27°
2026-04-19 09:15 46.00459 8.90988 898 ft 5 kts 94°
2026-04-19 09:16 46.00448 8.91046 900 ft 8 kts 89°
2026-04-19 09:16 46.00502 8.91096 901 ft 11 kts 19°
2026-04-19 09:16 46.00588 8.91138 900 ft 15 kts 20°
2026-04-19 09:16 46.00700 8.91193 896 ft 19 kts 19°
2026-04-19 09:17 46.00830 8.91256 895 ft 21 kts 19°
2026-04-19 09:17 46.00964 8.91323 895 ft 16 kts 18°
2026-04-19 09:17 46.01039 8.91331 897 ft 7 kts
2026-04-19 09:17 46.01044 8.91353 897 ft 3 kts 130°
2026-04-19 09:18 46.01032 8.91356 896 ft 2 kts 190°
2026-04-19 09:18 46.01026 8.91353 896 ft 0 kts 198°
2026-04-19 09:18 46.00813 8.91249 895 ft 78 kts 199°
2026-04-19 09:18 46.00033 8.90869 942 ft 152 kts 199°
2026-04-19 09:19 45.98942 8.90291 1608 ft 186 kts 201°
2026-04-19 09:19 45.97595 8.89536 2282 ft 225 kts 201°
2026-04-19 09:19 45.96107 8.88712 3269 ft 235 kts 201°
2026-04-19 09:19 45.94509 8.87832 4384 ft 260 kts 201°
2026-04-19 09:20 45.92739 8.86852 5628 ft 284 kts 202°
2026-04-19 09:20 45.90832 8.85796 6926 ft 305 kts 202°
2026-04-19 09:20 45.89479 8.85105 7821 ft 318 kts 198°